Location: Angwan Shehu
(11.2514°N, 7.4613°E)
Time: 01:51:59
(UTC+00:00)

N. Korean satellite - Pass Details

Date: 12 March 2021
Orbit: 453 x 499 km, 97.2° (Epoch: 11 April)

Event Time Altitude Azimuth Distance (km) Brightness Sun altitude
Rises 04:38:16 0° 9° (N) 2,562 10.4 -15.7°
Reaches altitude 10° 04:40:19 10° 9° (N) 1,686 9.4 -15.2°
Maximum altitude 04:43:57 82° 281° (W) 505 6.5 -14.3°
Drops below altitude 10° 04:47:37 10° 194° (SSW) 1,697 9.2 -13.5°
Sets 04:49:42 0° 193° (SSW) 2,581 10.1 -12.9°
